{"data":{"norad_id":69417,"intl_designator":"2026-125S","name":"QIANFAN-199","alt_names":[],"object_type":"PAYLOAD","status":"ACTIVE","operator":null,"country":"PRC","launch_date":"2026-06-05","launch_site_code":"WSC","launch_vehicle":null,"mission":null,"orbit_class":"UNKNOWN","rcs_meters":null,"size_class":null,"mass_kg":null,"dimensions":null,"purposes":[],"wikipedia_slug":null,"has_3d_model":false,"image_url":null,"decayed_at":null,"tle_current":{"epoch":"2026-09-20T03:36:37.971936Z","epoch_age_seconds":64955,"freshness":"FRESH","line1":"1 69417U 26125S   26263.15043949  .00000031  00000+0  29529-4 0  9991","line2":"2 69417  88.9877 270.2684 0002261 100.7479 259.3927 13.51025740 14813","mean_motion":13.5102574,"eccentricity":0.0002261,"inclination_deg":88.9877,"raan_deg":270.2684,"arg_perigee_deg":100.7479,"mean_anomaly_deg":259.3927,"bstar":2.9529e-5,"rev_number":1481,"period_min":106.5856820759,"perigee_km":1066.8033190567,"apogee_km":1070.1706824298,"semimajor_km":7446.6240007433,"source":"CELESTRAK","updated_at":"2026-09-20T09:00:24.869155Z"}}}